Chicago DuPage, IL

8:53 AM CDT on September 20, 2017 (GMT -0500)
Du Page

Weather History for KDPA - March, 2014

Change the Weather History Date:

Wednesday, March 26, 2014

  Actual Average Record
Temperature  
Mean Temperature 26 °F 42 °F  
Max Temperature 39 °F 53 °F 80 °F (2007)
Min Temperature 12 °F 31 °F 12 °F (2014)
Degree Days  
Heating Degree Days 39 23  
Month to date heating degree days 979 725  
Since 1 July heating degree days 6755 5480  
Cooling Degree Days 0 0  
Month to date cooling degree days 0 0  
Year to date cooling degree days 0 0  
Moisture  
Dew Point 12 °F    
Average Humidity 55    
Maximum Humidity 88    
Minimum Humidity 36    
Precipitation  
Precipitation 0.00 in 0.09 in 0.37 in (2004)
Month to date precipitation 0.28 1.94  
Year to date precipitation 1.50 4.67  
Sea Level Pressure  
Sea Level Pressure 30.21 in    
Wind  
Wind Speed 10 mph (SSW)    
Max Wind Speed 26 mph    
Max Gust Speed 33 mph    
Visibility 10 miles    
Events      
T = Trace of Precipitation, MM = Missing Value Source: NWS Daily Summary

Daily Weather History Graph

Daily Weather History Graph

Search for Another Location

Airport or City:

Trip Planner

Search our weather history database for the weather conditions in past years. The results will help you decide how hot, cold, wet, or windy it might be!

Date:

Astronomy

Mar. 26, 2014 Rise Set
Actual Time 6:45 AM CDT 7:11 PM CDT
Civil Twilight 6:18 AM CDT 7:39 PM CDT
Nautical Twilight 5:45 AM CDT 8:12 PM CDT
Astronomical Twilight 5:11 AM CDT 8:46 PM CDT
Moon 3:58 AM CDT (3/26) 2:46 PM CDT (3/26)
Length of Visible Light 13h 21m
Length of Day
12h 25m
Waning Crescent, 21% of the Moon is Illuminated
Mar 26
Waning Crescent
Mar 30
New
Apr 7
First Quarter
Apr 15
Full
Apr 22
Last Quarter

Hourly Weather History & Observations

Time (CDT) Temp. Windchill Dew Point Humidity Pressure Visibility Wind Dir Wind Speed Gust Speed Precip Events Conditions
12:52 AM 17.1 °F 8.7 °F 8.1 °F 68% 30.27 in 10.0 mi WNW 5.8 mph - N/A   Clear
1:52 AM 17.1 °F 8.7 °F 8.1 °F 68% 30.28 in 10.0 mi WNW 5.8 mph - N/A   Clear
2:52 AM 14.0 °F - 8.1 °F 77% 30.28 in 10.0 mi Calm Calm - N/A   Clear
3:52 AM 15.1 °F 9.4 °F 9.0 °F 77% 30.29 in 10.0 mi West 3.5 mph - N/A   Clear
4:52 AM 14.0 °F - 8.1 °F 77% 30.29 in 10.0 mi Calm Calm - N/A   Unknown
5:52 AM 12.0 °F - 9.0 °F 88% 30.30 in 10.0 mi Calm Calm - N/A   Clear
6:52 AM 12.0 °F - 8.1 °F 84% 30.33 in 10.0 mi Calm Calm - N/A   Clear
7:52 AM 17.1 °F - 12.9 °F 84% 30.33 in 10.0 mi Calm Calm - N/A   Clear
8:52 AM 21.9 °F 13.4 °F 10.0 °F 60% 30.33 in 10.0 mi South 6.9 mph - N/A   Clear
9:52 AM 25.0 °F 14.2 °F 7.0 °F 46% 30.34 in 10.0 mi South 11.5 mph - N/A   Clear
10:52 AM 28.0 °F 18.6 °F 7.0 °F 41% 30.32 in 10.0 mi SSW 10.4 mph - N/A   Clear
11:52 AM 30.9 °F 22.8 °F 8.1 °F 38% 30.30 in 10.0 mi South 9.2 mph - N/A   Unknown
12:52 PM 32.0 °F 24.8 °F 10.0 °F 40% 30.27 in 10.0 mi South 8.1 mph - N/A   Scattered Clouds
1:52 PM 34.0 °F 24.6 °F 10.9 °F 38% 30.24 in 10.0 mi South 13.8 mph - N/A   Clear
2:52 PM 37.0 °F 28.1 °F 12.0 °F 36% 30.21 in 10.0 mi South 15.0 mph - N/A   Clear
3:52 PM 37.9 °F 28.5 °F 12.9 °F 36% 30.18 in 10.0 mi South 17.3 mph 23.0 mph N/A   Clear
4:52 PM 37.9 °F 29.6 °F 15.1 °F 39% 30.15 in 10.0 mi South 13.8 mph 24.2 mph N/A   Partly Cloudy
5:52 PM 37.9 °F 30.0 °F 17.1 °F 43% 30.12 in 10.0 mi South 12.7 mph 23.0 mph N/A   Mostly Cloudy
6:52 PM 37.0 °F 28.1 °F 17.1 °F 44% 30.10 in 10.0 mi South 15.0 mph - N/A   Overcast
7:52 PM 37.0 °F 28.9 °F 18.0 °F 46% 30.07 in 10.0 mi South 12.7 mph - N/A   Overcast
8:52 PM 37.0 °F 28.1 °F 18.0 °F 46% 30.04 in 10.0 mi SSE 15.0 mph - N/A   Overcast
9:52 PM 37.0 °F 27.7 °F 18.0 °F 46% 30.04 in 10.0 mi South 16.1 mph - N/A   Overcast
10:52 PM 37.9 °F 27.6 °F 18.0 °F 45% 30.03 in 10.0 mi South 20.7 mph - N/A   Overcast
11:52 PM 37.9 °F 27.6 °F 19.0 °F 47% 30.01 in 10.0 mi South 20.7 mph 31.1 mph N/A   Overcast